MOLNIYA 2-9 (7276 NORAD) Tracking and Keplerian Element Data

This shows tracking and keplerian element data for the satellite.

Feedback or suggestion? Click here.




ElementValue
Catalog7276
NameMOLNIYA 2-9
Epoch Orbit28059
Epoch Day352.70475515
Epoch Year2025
RAAN47.831
Inclination64.3981
Eccentricity0.66586
Argument of Perigee264.7393
Mean Anonmoly22.1064
Mean Motion2.45097361
Decay Rate-1.21E-06
L11 07276U 74026A 25352.70475515 -.00000121 00000+0 00000+0 0 9995
L22 07276 64.3981 47.8310 6658600 264.7393 22.1064 2.45097361280599



Live tracking and technical data element details for MOLNIYA 2-9 (NORAD 7276). MOLNIYA 2-9 can be tracked NOW for your location showing map with azimuth and elevation plus other details from your city location.







IsCatalogInMostPopularTable: catalog: 7276, numindb: 515
Update: records affected: 1



GetName: 7276 MOLNIYA 2-9

Hit Count: updated at: Thu, 16 Apr 2026 05:54:08 GMT